When you browse on this site, cookies collect data to enhance your experience and personalize the content and advertising you see.
Visit our Privacy Policy to learn more. By continuing to use the site, you agree to this use of cookies and data.
  • In Österreich
  • Länderverzeichnis
  • Für 7 Tage
  • Wassertemperatur
  • Satellitenkarten
  • Wetterkarte
  • News
  • Widgets
  • user-avatar
    Anmelden

    Stündliche Wetter Tarin Kowt

    Heute, 21 April, Sonntag

    Zeit Temperatur Niederschläge Wind Luftdruck Luftfeuchtigkeit
    00:00 +19°C° 0 mm 2 m/S 616 mmHg 37%
    01:00 +18°C° 0 mm 2 m/S 615 mmHg 38%
    02:00 +18°C° 0 mm 2 m/S 615 mmHg 38%
    03:00 +18°C° 0 mm 2 m/S 615 mmHg 39%
    04:00 +17°C° 0 mm 2 m/S 614 mmHg 38%
    05:00 +18°C° 0 mm 2 m/S 615 mmHg 36%
    06:00 +19°C° 0 mm 2 m/S 615 mmHg 34%
    07:00 +20°C° 0 mm 2 m/S 616 mmHg 32%
    08:00 +21°C° 0 mm 2 m/S 616 mmHg 29%
    09:00 +24°C° 0 mm 1 m/S 617 mmHg 26%
    10:00 +25°C° 0 mm 1 m/S 617 mmHg 22%
    11:00 +26°C° 0 mm 1 m/S 617 mmHg 20%
    12:00 +27°C° 0 mm 2 m/S 617 mmHg 18%
    13:00 +28°C° 0 mm 3 m/S 617 mmHg 16%
    14:00 +28°C° 0 mm 3 m/S 617 mmHg 16%
    15:00 +28°C° 0 mm 4 m/S 617 mmHg 15%
    16:00 +28°C° 0 mm 4 m/S 617 mmHg 15%
    17:00 +27°C° 0 mm 3 m/S 616 mmHg 19%
    18:00 +25°C° 0 mm 2 m/S 616 mmHg 23%
    19:00 +24°C° 0 mm 1 m/S 616 mmHg 27%
    20:00 +23°C° 0 mm 1 m/S 616 mmHg 29%
    21:00 +23°C° 0 mm 1 m/S 616 mmHg 30%
    22:00 +22°C° 0 mm 1 m/S 616 mmHg 32%
    23:00 +21°C° 0 mm 1 m/S 616 mmHg 33%

    Morgen, 22 April, Montag

    Zeit Temperatur Niederschläge Wind Luftdruck Luftfeuchtigkeit
    00:00 +20°C° 0 mm 1 m/S 616 mmHg 34%
    01:00 +20°C° 0 mm 1 m/S 615 mmHg 35%
    02:00 +19°C° 0 mm 1 m/S 615 mmHg 35%
    03:00 +19°C° 0 mm 1 m/S 615 mmHg 35%
    04:00 +18°C° 0 mm 1 m/S 615 mmHg 34%
    05:00 +19°C° 0 mm 1 m/S 616 mmHg 32%
    06:00 +19°C° 0 mm 2 m/S 617 mmHg 29%
    07:00 +20°C° 0 mm 2 m/S 618 mmHg 26%
    08:00 +23°C° 0 mm 2 m/S 618 mmHg 23%
    09:00 +24°C° 0 mm 1 m/S 618 mmHg 21%
    10:00 +25°C° 0 mm 1 m/S 619 mmHg 18%
    11:00 +26°C° 0 mm 2 m/S 619 mmHg 17%
    12:00 +27°C° 0 mm 3 m/S 619 mmHg 16%
    13:00 +28°C° 0 mm 3 m/S 619 mmHg 15%
    14:00 +28°C° 0 mm 4 m/S 619 mmHg 15%
    15:00 +28°C° 0 mm 5 m/S 619 mmHg 15%
    16:00 +28°C° 0 mm 5 m/S 618 mmHg 15%
    17:00 +27°C° 0 mm 4 m/S 618 mmHg 20%
    18:00 +26°C° 0 mm 2 m/S 618 mmHg 26%
    19:00 +22°C° 0 mm 0 m/S 618 mmHg 31%
    20:00 +24°C° 0 mm 1 m/S 618 mmHg 29%
    21:00 +24°C° 0 mm 1 m/S 618 mmHg 28%
    22:00 +24°C° 0 mm 1 m/S 618 mmHg 26%
    23:00 +23°C° 0 mm 1 m/S 618 mmHg 29%

    übermorgen, 23 April, Dienstag

    Zeit Temperatur Niederschläge Wind Luftdruck Luftfeuchtigkeit
    00:00 +22°C° 0 mm 1 m/S 618 mmHg 32%
    01:00 +22°C° 0 mm 1 m/S 617 mmHg 35%
    02:00 +21°C° 0.2 mm 1 m/S 617 mmHg 37%
    03:00 +21°C° 0.2 mm 1 m/S 617 mmHg 39%
    04:00 +21°C° 0.2 mm 1 m/S 617 mmHg 41%
    05:00 +21°C° 0.6 mm 1 m/S 617 mmHg 39%
    06:00 +21°C° 0.6 mm 1 m/S 618 mmHg 38%
    07:00 +20°C° 0.6 mm 2 m/S 618 mmHg 37%
    08:00 +23°C° 0.5 mm 1 m/S 619 mmHg 35%
    09:00 +24°C° 0.5 mm 1 m/S 619 mmHg 32%
    10:00 +25°C° 0.5 mm 1 m/S 620 mmHg 30%
    11:00 +26°C° 0 mm 2 m/S 620 mmHg 28%
    12:00 +27°C° 0 mm 4 m/S 620 mmHg 26%
    13:00 +28°C° 0 mm 5 m/S 620 mmHg 24%
    14:00 +28°C° 0 mm 5 m/S 619 mmHg 24%
    15:00 +28°C° 0 mm 5 m/S 618 mmHg 24%
    16:00 +28°C° 0 mm 5 m/S 618 mmHg 24%
    17:00 +27°C° 0 mm 4 m/S 617 mmHg 28%
    18:00 +26°C° 0 mm 3 m/S 617 mmHg 32%
    19:00 +25°C° 0 mm 2 m/S 617 mmHg 36%
    20:00 +24°C° 0.3 mm 3 m/S 617 mmHg 39%
    21:00 +22°C° 0.3 mm 5 m/S 617 mmHg 43%
    22:00 +21°C° 0.3 mm 7 m/S 617 mmHg 46%
    23:00 +20°C° 0.2 mm 5 m/S 617 mmHg 49%

    24 April, Mittwoch

    Zeit Temperatur Niederschläge Wind Luftdruck Luftfeuchtigkeit
    00:00 +19°C° 0.2 mm 4 m/S 616 mmHg 52%
    01:00 +19°C° 0.2 mm 3 m/S 616 mmHg 55%
    02:00 +18°C° 0 mm 2 m/S 615 mmHg 57%
    03:00 +18°C° 0 mm 2 m/S 615 mmHg 58%
    04:00 +18°C° 0 mm 2 m/S 614 mmHg 59%
    05:00 +18°C° 0.4 mm 3 m/S 615 mmHg 56%
    06:00 +19°C° 0.4 mm 3 m/S 615 mmHg 53%
    07:00 +20°C° 0.4 mm 4 m/S 615 mmHg 50%
    08:00 +21°C° 0 mm 6 m/S 616 mmHg 44%
    09:00 +23°C° 0 mm 8 m/S 617 mmHg 39%
    10:00 +24°C° 0 mm 11 m/S 617 mmHg 33%
    11:00 +24°C° 0 mm 11 m/S 617 mmHg 32%
    12:00 +24°C° 0 mm 11 m/S 616 mmHg 31%
    13:00 +24°C° 0 mm 11 m/S 616 mmHg 30%
    14:00 +24°C° 0 mm 10 m/S 616 mmHg 30%
    15:00 +23°C° 0 mm 10 m/S 616 mmHg 29%
    16:00 +22°C° 0 mm 10 m/S 616 mmHg 28%
    17:00 +21°C° 0 mm 8 m/S 616 mmHg 29%
    18:00 +19°C° 0 mm 6 m/S 616 mmHg 30%
    19:00 +17°C° 0 mm 5 m/S 616 mmHg 31%
    20:00 +17°C° 0 mm 4 m/S 616 mmHg 32%
    21:00 +16°C° 0 mm 3 m/S 616 mmHg 33%
    22:00 +16°C° 0 mm 2 m/S 616 mmHg 35%
    23:00 +15°C° 0 mm 2 m/S 616 mmHg 36%

    25 April, Donnerstag

    Zeit Temperatur Niederschläge Wind Luftdruck Luftfeuchtigkeit
    00:00 +14°C° 0 mm 2 m/S 616 mmHg 38%
    01:00 +14°C° 0 mm 2 m/S 615 mmHg 40%
    02:00 +13°C° 0 mm 1 m/S 615 mmHg 42%
    03:00 +13°C° 0 mm 1 m/S 615 mmHg 44%
    04:00 +12°C° 0 mm 1 m/S 615 mmHg 45%
    05:00 +13°C° 0 mm 1 m/S 616 mmHg 40%
    06:00 +14°C° 0 mm 1 m/S 617 mmHg 35%
    07:00 +14°C° 0 mm 1 m/S 617 mmHg 30%
    08:00 +15°C° 0 mm 1 m/S 618 mmHg 26%
    09:00 +16°C° 0 mm 2 m/S 618 mmHg 23%
    10:00 +18°C° 0 mm 3 m/S 619 mmHg 19%
    11:00 +18°C° 0 mm 3 m/S 619 mmHg 18%
    12:00 +19°C° 0 mm 4 m/S 619 mmHg 18%
    13:00 +20°C° 0 mm 4 m/S 618 mmHg 17%
    14:00 +20°C° 0 mm 5 m/S 618 mmHg 18%
    15:00 +20°C° 0 mm 5 m/S 618 mmHg 19%
    16:00 +20°C° 0 mm 6 m/S 618 mmHg 19%
    17:00 +19°C° 0 mm 5 m/S 618 mmHg 22%
    18:00 +18°C° 0 mm 3 m/S 617 mmHg 25%
    19:00 +17°C° 0 mm 2 m/S 617 mmHg 27%
    20:00 +16°C° 0 mm 2 m/S 617 mmHg 30%
    21:00 +15°C° 0 mm 1 m/S 617 mmHg 32%
    22:00 +15°C° 0 mm 1 m/S 617 mmHg 35%
    23:00 +14°C° 0 mm 1 m/S 617 mmHg 37%

    26 April, Freitag

    Zeit Temperatur Niederschläge Wind Luftdruck Luftfeuchtigkeit
    00:00 +13°C° 0 mm 0 m/S 617 mmHg 39%
    01:00 +12°C° 0 mm 0 m/S 616 mmHg 40%
    02:00 +12°C° 0 mm 0 m/S 616 mmHg 40%
    03:00 +11°C° 0 mm 0 m/S 616 mmHg 40%
    04:00 +12°C° 0 mm 1 m/S 615 mmHg 39%
    05:00 +13°C° 0 mm 1 m/S 616 mmHg 36%
    06:00 +14°C° 0 mm 1 m/S 617 mmHg 32%
    07:00 +15°C° 0 mm 1 m/S 618 mmHg 28%
    08:00 +16°C° 0 mm 1 m/S 618 mmHg 26%
    09:00 +18°C° 0 mm 1 m/S 618 mmHg 23%
    10:00 +18°C° 0 mm 2 m/S 619 mmHg 21%
    11:00 +19°C° 0 mm 3 m/S 619 mmHg 20%
    12:00 +20°C° 0 mm 4 m/S 619 mmHg 19%
    13:00 +21°C° 0 mm 5 m/S 618 mmHg 19%
    14:00 +21°C° 0 mm 5 m/S 618 mmHg 19%
    15:00 +20°C° 0 mm 5 m/S 618 mmHg 19%
    16:00 +20°C° 0 mm 6 m/S 617 mmHg 19%
    17:00 +19°C° 0 mm 5 m/S 617 mmHg 22%
    18:00 +18°C° 0 mm 4 m/S 618 mmHg 24%
    19:00 +17°C° 0 mm 3 m/S 618 mmHg 27%
    20:00 +17°C° 0 mm 2 m/S 618 mmHg 30%
    21:00 +16°C° 0 mm 2 m/S 618 mmHg 32%
    22:00 +15°C° 0 mm 1 m/S 618 mmHg 35%
    23:00 +15°C° 0 mm 1 m/S 617 mmHg 36%
    Mehr zeigen